When you browse on this site, cookies collect data to enhance your experience and personalize the content and advertising you see.
Visit our Privacy Policy to learn more. By continuing to use the site, you agree to this use of cookies and data.
  • en Suisse
  • Liste des pays
  • À 7 jours
  • Température de l'eau
  • Carte météo
  • Widgets météo
  • user-avatar
    Se connecter

    Météo par heure à Tours

    Ce jour, 13 Novembre, Mercredi

    Heure Température Précipitation Vent Pression Humidité
    00:00 +4°C° 0 mm 2 m/s 749 mmHg 87%
    01:00 +4°C° 0 mm 2 m/s 749 mmHg 88%
    02:00 +2°C° 0 mm 3 m/s 749 mmHg 89%
    03:00 +2°C° 0 mm 3 m/s 748 mmHg 90%
    04:00 +3°C° 0 mm 3 m/s 749 mmHg 88%
    05:00 +3°C° 0 mm 3 m/s 749 mmHg 86%
    06:00 +4°C° 0 mm 3 m/s 749 mmHg 84%
    07:00 +4°C° 0 mm 3 m/s 749 mmHg 84%
    08:00 +4°C° 0 mm 3 m/s 749 mmHg 83%
    09:00 +5°C° 0 mm 3 m/s 750 mmHg 83%
    10:00 +6°C° 0 mm 4 m/s 749 mmHg 79%
    11:00 +7°C° 0 mm 4 m/s 749 mmHg 75%
    12:00 +9°C° 0 mm 5 m/s 749 mmHg 71%
    13:00 +10°C° 0.1 mm 4 m/s 749 mmHg 69%
    14:00 +10°C° 0.1 mm 4 m/s 748 mmHg 68%
    15:00 +8°C° 0.1 mm 4 m/s 747 mmHg 66%
    16:00 +8°C° 0 mm 5 m/s 747 mmHg 69%
    17:00 +7°C° 0 mm 5 m/s 746 mmHg 72%
    18:00 +5°C° 0 mm 6 m/s 745 mmHg 75%
    19:00 +5°C° 0.3 mm 7 m/s 744 mmHg 78%
    20:00 +5°C° 0.3 mm 7 m/s 743 mmHg 80%
    21:00 +5°C° 0.3 mm 8 m/s 742 mmHg 83%
    22:00 +5°C° 2.3 mm 6 m/s 742 mmHg 85%
    23:00 +5°C° 2.3 mm 5 m/s 742 mmHg 88%

    Demain, 14 Novembre, Jeudi

    Heure Température Précipitation Vent Pression Humidité
    00:00 +4°C° 2.3 mm 3 m/s 741 mmHg 90%
    01:00 +4°C° 0.2 mm 3 m/s 741 mmHg 90%
    02:00 +4°C° 0.2 mm 4 m/s 741 mmHg 89%
    03:00 +4°C° 0.2 mm 4 m/s 741 mmHg 89%
    04:00 +3°C° 0 mm 4 m/s 741 mmHg 89%
    05:00 +3°C° 0 mm 3 m/s 742 mmHg 90%
    06:00 +3°C° 0 mm 2 m/s 742 mmHg 90%
    07:00 +3°C° 0 mm 3 m/s 742 mmHg 88%
    08:00 +3°C° 0 mm 3 m/s 743 mmHg 86%
    09:00 +4°C° 0 mm 3 m/s 743 mmHg 84%
    10:00 +5°C° 0 mm 3 m/s 743 mmHg 77%
    11:00 +7°C° 0 mm 3 m/s 743 mmHg 71%
    12:00 +8°C° 0 mm 2 m/s 743 mmHg 64%
    13:00 +8°C° 0 mm 2 m/s 743 mmHg 63%
    14:00 +9°C° 0 mm 1 m/s 743 mmHg 61%
    15:00 +10°C° 0 mm 1 m/s 743 mmHg 60%
    16:00 +8°C° 0 mm 1 m/s 743 mmHg 66%
    17:00 +6°C° 0 mm 2 m/s 743 mmHg 71%
    18:00 +5°C° 0 mm 2 m/s 743 mmHg 77%
    19:00 +5°C° 0 mm 2 m/s 744 mmHg 80%
    20:00 +4°C° 0 mm 2 m/s 744 mmHg 82%
    21:00 +4°C° 0 mm 2 m/s 744 mmHg 85%
    22:00 +3°C° 0 mm 2 m/s 744 mmHg 87%
    23:00 +3°C° 0 mm 2 m/s 744 mmHg 89%

    Après-demain, 15 Novembre, Vendredi

    Heure Température Précipitation Vent Pression Humidité
    00:00 +3°C° 0 mm 2 m/s 745 mmHg 90%
    01:00 +3°C° 0 mm 2 m/s 745 mmHg 91%
    02:00 +2°C° 0 mm 2 m/s 745 mmHg 92%
    03:00 +2°C° 0 mm 2 m/s 745 mmHg 92%
    04:00 +2°C° 0 mm 2 m/s 745 mmHg 93%
    05:00 +2°C° 0 mm 2 m/s 746 mmHg 93%
    06:00 +2°C° 0 mm 2 m/s 746 mmHg 93%
    07:00 +3°C° 0 mm 2 m/s 746 mmHg 93%
    08:00 +3°C° 0 mm 2 m/s 747 mmHg 91%
    09:00 +5°C° 0 mm 1 m/s 748 mmHg 89%
    10:00 +4°C° 0 mm 2 m/s 748 mmHg 86%
    11:00 +5°C° 0 mm 2 m/s 748 mmHg 82%
    12:00 +5°C° 0 mm 3 m/s 748 mmHg 79%
    13:00 +6°C° 0 mm 2 m/s 747 mmHg 78%
    14:00 +6°C° 0 mm 2 m/s 747 mmHg 77%
    15:00 +7°C° 0 mm 1 m/s 747 mmHg 77%
    16:00 +7°C° 0 mm 1 m/s 747 mmHg 80%
    17:00 +6°C° 0 mm 1 m/s 748 mmHg 83%
    18:00 +5°C° 0 mm 1 m/s 748 mmHg 86%
    19:00 +5°C° 0 mm 1 m/s 749 mmHg 86%
    20:00 +5°C° 0 mm 1 m/s 749 mmHg 87%
    21:00 +4°C° 0 mm 1 m/s 749 mmHg 88%
    22:00 +3°C° 0 mm 2 m/s 749 mmHg 89%
    23:00 +3°C° 0 mm 2 m/s 750 mmHg 90%

    16 Novembre, Samedi

    Heure Température Précipitation Vent Pression Humidité
    00:00 +3°C° 0 mm 2 m/s 750 mmHg 90%
    01:00 +2°C° 0 mm 3 m/s 750 mmHg 92%
    02:00 +2°C° 0 mm 3 m/s 750 mmHg 93%
    03:00 +1°C° 0 mm 3 m/s 750 mmHg 94%
    04:00 +2°C° 0.1 mm 3 m/s 750 mmHg 94%
    05:00 +2°C° 0.1 mm 3 m/s 750 mmHg 94%
    06:00 +2°C° 0.1 mm 3 m/s 750 mmHg 94%
    07:00 +1°C° 0.3 mm 4 m/s 750 mmHg 94%
    08:00 +3°C° 0.3 mm 4 m/s 751 mmHg 93%
    09:00 +4°C° 0.3 mm 4 m/s 751 mmHg 93%
    10:00 +5°C° 0.1 mm 5 m/s 751 mmHg 89%
    11:00 +5°C° 0.1 mm 5 m/s 751 mmHg 85%
    12:00 +5°C° 0.1 mm 6 m/s 751 mmHg 80%
    13:00 +6°C° 0.3 mm 5 m/s 751 mmHg 81%
    14:00 +6°C° 0.3 mm 5 m/s 751 mmHg 81%
    15:00 +6°C° 0.3 mm 5 m/s 751 mmHg 82%
    16:00 +6°C° 0.3 mm 5 m/s 751 mmHg 84%
    17:00 +6°C° 0.3 mm 5 m/s 751 mmHg 87%
    18:00 +6°C° 0.3 mm 5 m/s 751 mmHg 89%
    19:00 +5°C° 0.3 mm 5 m/s 751 mmHg 90%
    20:00 +5°C° 0.3 mm 4 m/s 751 mmHg 90%
    21:00 +5°C° 0.3 mm 4 m/s 751 mmHg 91%
    22:00 +4°C° 0 mm 4 m/s 751 mmHg 92%
    23:00 +4°C° 0 mm 3 m/s 751 mmHg 93%

    17 Novembre, Dimanche

    Heure Température Précipitation Vent Pression Humidité
    00:00 +3°C° 0 mm 3 m/s 751 mmHg 94%
    01:00 +4°C° 0 mm 2 m/s 751 mmHg 94%
    02:00 +4°C° 0 mm 2 m/s 751 mmHg 94%
    03:00 +4°C° 0 mm 2 m/s 751 mmHg 94%
    04:00 +4°C° 0 mm 2 m/s 750 mmHg 94%
    05:00 +4°C° 0 mm 2 m/s 750 mmHg 94%
    06:00 +4°C° 0 mm 2 m/s 750 mmHg 94%
    07:00 +5°C° 0 mm 2 m/s 750 mmHg 93%
    08:00 +5°C° 0 mm 2 m/s 751 mmHg 91%
    09:00 +5°C° 0 mm 2 m/s 751 mmHg 90%
    10:00 +6°C° 0 mm 2 m/s 751 mmHg 86%
    11:00 +7°C° 0 mm 2 m/s 751 mmHg 83%
    12:00 +9°C° 0 mm 3 m/s 750 mmHg 79%
    13:00 +8°C° 0 mm 2 m/s 750 mmHg 79%
    14:00 +9°C° 0 mm 1 m/s 750 mmHg 80%
    15:00 +8°C° 0 mm 0 m/s 749 mmHg 81%
    16:00 +8°C° 0 mm 1 m/s 750 mmHg 83%
    17:00 +7°C° 0 mm 2 m/s 750 mmHg 85%
    18:00 +6°C° 0 mm 2 m/s 750 mmHg 87%
    19:00 +6°C° 0 mm 2 m/s 751 mmHg 88%
    20:00 +5°C° 0 mm 2 m/s 751 mmHg 88%
    21:00 +5°C° 0 mm 2 m/s 751 mmHg 89%
    22:00 +6°C° 0 mm 1 m/s 751 mmHg 89%
    23:00 +5°C° 0 mm 1 m/s 751 mmHg 90%

    18 Novembre, Lundi

    Heure Température Précipitation Vent Pression Humidité
    00:00 +5°C° 0 mm 1 m/s 751 mmHg 90%
    01:00 +5°C° 0 mm 1 m/s 751 mmHg 90%
    02:00 +5°C° 0 mm 1 m/s 751 mmHg 91%
    03:00 +4°C° 0 mm 1 m/s 751 mmHg 91%
    04:00 +4°C° 0 mm 1 m/s 751 mmHg 91%
    05:00 +4°C° 0 mm 1 m/s 752 mmHg 91%
    06:00 +3°C° 0 mm 0 m/s 752 mmHg 92%
    07:00 +3°C° 0 mm 0 m/s 753 mmHg 89%
    08:00 +5°C° 0 mm 1 m/s 753 mmHg 87%
    09:00 +6°C° 0 mm 1 m/s 753 mmHg 84%
    10:00 +7°C° 0 mm 1 m/s 753 mmHg 80%
    11:00 +8°C° 0 mm 1 m/s 753 mmHg 76%
    12:00 +9°C° 0 mm 1 m/s 753 mmHg 72%
    13:00 +9°C° 0 mm 1 m/s 753 mmHg 72%
    14:00 +9°C° 0 mm 1 m/s 753 mmHg 73%
    15:00 +8°C° 0 mm 2 m/s 753 mmHg 73%
    16:00 +7°C° 0 mm 2 m/s 753 mmHg 77%
    17:00 +6°C° 0 mm 2 m/s 753 mmHg 81%
    18:00 +5°C° 0 mm 2 m/s 753 mmHg 85%
    19:00 +5°C° 0 mm 2 m/s 753 mmHg 86%
    20:00 +5°C° 0 mm 2 m/s 753 mmHg 87%
    21:00 +3°C° 0 mm 3 m/s 753 mmHg 89%
    22:00 +3°C° 0 mm 3 m/s 753 mmHg 89%
    23:00 +3°C° 0 mm 3 m/s 752 mmHg 89%
    Voir plus